Regional Weather Roundup
Issued by NWS Upton, NY

Current Version | Previous Version | Text Only | Print | Product List | Glossary On
Versions: 1 2 3 4 5 6 7 8 9 10 11 12 13 14 15 16 17 18 19 20 21 22 23 24 25 26 27
000 ASUS41 KOKX 250304 RWROKX REGIONAL WEATHER ROUNDUP NATIONAL WEATHER SERVICE NEW YORK NY 1100 PM EDT TUE MAY 24 2016 NOTE: "FAIR" INDICATES FEW OR NO CLOUDS BELOW 12,000 FEET WITH NO SIGNIFICANT WEATHER AND/OR OBSTRUCTIONS TO VISIBILITY. NYZ071-072-176-178-NJZ106-104-250400- NEW YORK CITY METRO AREA CITY SKY/WX TMP DP RH WIND PRES REMARKS CENTRAL PARK CLOUDY 66 50 56 CALM 30.01S LAGUARDIA APRT CLOUDY 67 57 70 CALM 29.98R KENNEDY INTL MOCLDY 64 57 78 CALM 29.99S NEWARK/LIBERTY CLOUDY 68 51 54 CALM 29.98S BRNX BOT. GARD N/A 63 52 67 E1 30.00R TETERBORO CLOUDY 65 52 62 CALM 29.97R $$ NYZ177-179-078>081-250400- LONG ISLAND NEW YORK CITY SKY/WX TMP DP RH WIND PRES REMARKS FARMINGDALE CLOUDY 62 56 80 S3 29.98S ISLIP CLOUDY 61 58 90 CALM 29.97S SHIRLEY PTCLDY 59 57 93 CALM 29.99S RIVERHEAD N/A 55 54 94 CALM 29.98S WESTHAMPTON FOG 49 49 100 CALM 30.00S VSB 3/4 EAST HAMPTON FAIR 56 55 97 CALM 29.98R MONTAUK POINT N/A 57 57 100 CALM 29.99S $$ NYZ052-065-067-250400- HUDSON VALLEY CITY SKY/WX TMP DP RH WIND PRES REMARKS WHITE PLAINS CLOUDY 60 57 89 CALM 29.98R NEWBURGH NOT AVBL MONTGOMERY PTCLDY 53 51 93 SW3 29.99R POUGHKEEPSIE CLEAR 59 56 89 CALM 29.98R ALBANY MOCLDY 59 55 87 E5 29.97R $$ NJZ001-105-106-008-010-013-015-019>022-104-250400- NEW JERSEY CITY SKY/WX TMP DP RH WIND PRES REMARKS NEWARK/LIBERTY CLOUDY 68 51 54 CALM 29.98S TETERBORO CLOUDY 65 52 62 CALM 29.97R CALDWELL MOCLDY 62 56 80 CALM 30.00R MORRISTOWN CLOUDY 55 52 88 CALM 30.00S SOMERVILLE CLEAR 57 54 89 CALM 29.98R SUSSEX CLEAR 55 52 89 CALM 30.01R ANDOVER N/A 55 53 93 CALM 30.01R TRENTON CLEAR 62 53 72 N5 29.99R MILLVILLE CLEAR 67 54 63 W7 29.99R ATLANTIC CITY CLEAR 68 54 60 SW7 29.98R WRIGHTSTOWN NOT AVBL TOMS RIVER CLEAR 61 54 77 NE3 30.00R BELMAR PTCLDY 61 56 83 E3 30.01R $$ PAZ047>061-062-071-250400- EASTERN PENNSYLVANIA CITY SKY/WX TMP DP RH WIND PRES REMARKS PHILADELPHIA CLEAR 73 47 39 N5 29.99R ALLENTOWN CLEAR 61 52 72 NE3 30.01R SCRANTON CLEAR 62 43 49 SE7 30.01R $$ CTZ002-004>006-009-010-012-RIZ004-006-007-MAZ004-011-015-250400- SOUTHERN NEW ENGLAND IN CT CITY SKY/WX TMP DP RH WIND PRES REMARKS BRADLEY INTL PTCLDY 58 55 90 CALM 29.96S HARTFORD CLEAR 60 56 86 S3 29.97R DANBURY CLOUDY 59 57 93 CALM 30.01R WTRBRY/OXFORD N/A 55 52 88 CALM 30.01R BRIDGEPORT PTCLDY 60 58 92 SW3 29.98R MERIDEN PTCLDY 56 54 93 CALM 29.98R NEW HAVEN MOCLDY 57 55 93 W5 29.98R FOG CHESTER FAIR 57 55 94 CALM 29.98S GROTON MOCLDY 55 55 100 CALM 29.98R WILLIMANTIC PTCLDY 56 52 86 CALM 29.98R IN RI CITY SKY/WX TMP DP RH WIND PRES REMARKS PROVIDENCE CLOUDY 56 53 90 NE6 29.98R BLOCK ISLAND FOG 54 54 100 CALM 29.99R VSB 1/4 WESTERLY CLOUDY 57 54 89 CALM 29.99R IN MA CITY SKY/WX TMP DP RH WIND PRES REMARKS BOSTON CLOUDY 53 51 93 N6 29.98S WORCESTER CLOUDY 56 54 93 NW5 29.99R WESTFIELD CLEAR 54 53 97 CALM 29.97S FOG PROVINCETOWN LGT RAIN 51 51 100 N6 29.97R VSB 3/4 NANTUCKET CLOUDY 56 54 93 W7 29.95R FOG $$ ANZ330-335-338-340-345-350-353-355-250400- COASTAL MARINE OBSERVATIONS STATION/POSITION TIME SKY/WX TEMP WIND PRES VSBY WAVE AIR SEA DIR/SP/G HT/PER (UTC) (F) (DEG/KT/KT) (MB) (MI) (FT/S) NY HARB ENTRANCE 0150 61 59 240/ 2/ 4 1014.8 3/ 9 20S FIRE ISLAND 0250 58 54 CALM / 2 1015.2 3/ 9 GREAT SOUTH BAY 0200 62 64 240/ 6/ 6 N/A 23 SSW MONTAUK P 0250 56 54 240/ 6/ 6 1014.8 3/ 8 15 E BARNEGAT LI NOT AVBL HUDSON CANYON 0150 58 53 1014.9 3/ 8 KINGS POINT 0200 60 58 1014.8 EXECUTION ROCKS NOT AVBL CENTRAL LI SOUND 0230 58 200/ 4/ 6 N/A 0 EASTERN LI SOUND 0200 56 52 CALM / 4 N/A ROBBINS REEF 0200 66 1014.5 $$ >>>>>>>>>>>>>>>>>>>>>>>>>>>> KEY <<<<<<<<<<<<<<<<<<<<<<<<<<< > < > SKY/WX - SKY CONDITION/PRESENT WEATHER < > TMP - TEMPERATURE IN FAHRENHEIT < > DP - DEWPOINT IN FAHRENHEIT < > RH - RELATIVE HUMIDITY IN PERCENT < > WIND - DIRECTION AND SPEED IN MPH < > PRES - MEAN SEA LEVEL PRESSURE IN INCHES OF HG < > WCI - WIND CHILL INDEX < > VSB - VISIBILITY IN MILES < > HX - HEAT INDEX < > TC - TEMPERATURE IN CELSIUS < > VRB - VARIABLE WIND DIRECTION < > < >>>>>>>>>>>>>>>>>>>>>>>>>>>> KEY <<<<<<<<<<<<<<<<<<<<<<<<<<<

USA.gov is the U.S. government's official web portal to all federal, state and local government web resources and services.